Wind_Speed
17 16 16 17 16 16 15 15 15 15 15 15 15 15 16 17 18 18 18 18 17 18 17 17 17 17 16 16 17 17 18 19 19 19 19 21 22 22 23 23 23 24 24 25
16 17 17 16 16 14 14 15 15 14 14 13 13 14 15 16 17 17 17 17 17 17 17 18 18 17 16 17 16 16 17 18 19 19 21 22 21 22 23 23 24 25 25 25
16 17 16 15 14 14 13 14 15 15 14 14 14 14 14 14 15 16 16 16 16 17 17 17 17 16 16 16 16 16 16 17 19 20 20 21 22 23 23 24 25 25 26 26
16 15 15 14 14 14 14 13 13 13 12 13 12 11 13 13 14 15 16 15 16 16 17 17 15 15 16 16 16 17 18 19 20 20 21 22 23 24 24 25 26 26 27 27
15 15 14 14 14 14 14 13 12 12 12 13 13 11 13 14 14 14 15 15 16 17 17 16 15 16 17 18 18 19 20 21 22 22 22 23 24 25 26 26 27 27 27 27
15 14 14 14 14 14 13 13 13 12 12 13 13 13 13 13 13 14 15 16 16 16 16 16 16 17 19 20 20 21 22 22 23 24 24 25 25 27 27 27 27 27 27 28
15 15 14 14 14 14 13 12 11 12 13 14 14 13 13 14 14 14 15 15 15 16 17 18 18 19 20 21 22 23 23 24 24 25 26 26 27 27 26 26 27 27 28 28
15 16 15 15 14 14 14 13 12 12 13 13 15 14 13 15 15 15 15 14 15 15 16 17 18 20 21 22 23 24 24 25 26 27 27 27 27 27 27 27 27 28 29 29
15 16 15 16 15 15 15 15 14 13 13 13 15 15 15 15 15 16 15 15 15 16 16 18 19 21 22 23 24 24 25 26 27 28 28 28 28 28 28 28 29 30 30 31
15 15 15 15 15 16 15 15 15 13 13 13 14 16 16 16 15 16 16 16 16 16 17 18 20 22 23 24 25 25 26 27 27 28 28 29 29 29 29 29 30 30 30 30
14 14 15 15 15 15 15 15 15 14 14 12 13 15 16 16 15 15 15 15 16 17 18 19 20 22 23 23 24 25 25 26 26 27 27 27 27 27 28 28 28 29 29 29
13 14 14 14 14 14 14 15 14 14 14 14 13 15 16 15 15 15 15 16 17 18 19 20 21 22 22 23 23 23 23 24 25 25 25 25 25 25 26 26 27 28 27 27
12 12 12 12 12 13 14 14 14 14 14 14 14 15 16 16 16 15 16 17 18 19 20 20 20 21 22 22 22 22 22 23 24 25 25 24 24 24 24 25 25 25 25 24
10 10 10 11 11 13 13 13 13 13 12 14 15 15 16 15 15 16 17 17 18 18 19 20 20 21 21 22 22 22 23 23 23 23 23 23 22 22 22 23 23 23 22 22
10 10 11 11 11 11 11 12 12 11 11 12 13 14 15 14 15 15 16 17 17 18 19 20 21 21 21 21 21 22 22 22 21 21 21 21 21 20 20 20 19 19 18 18
9 9 9 9 9 9 10 10 10 10 10 11 12 14 14 14 15 15 16 16 17 18 19 20 20 20 20 20 20 20 20 20 20 20 19 18 18 18 17 17 16 16 16 16
8 8 8 8 8 8 9 9 9 10 10 11 13 13 14 14 15 15 16 17 18 18 19 19 19 20 20 20 20 19 18 18 17 16 15 15 15 15 15 15 14 14 14 14
7 7 7 7 7 8 9 9 9 10 11 12 13 13 14 14 15 16 16 17 18 18 18 18 18 18 18 17 16 16 16 16 15 14 14 14 14 14 14 13 12 12 12 12
6 6 7 7 8 9 9 9 10 11 12 12 12 13 13 14 14 15 15 16 16 16 17 17 17 16 15 15 15 15 14 13 13 13 13 13 13 13 12 12 10 9 10 11
6 6 6 7 8 9 9 9 9 10 10 10 11 12 12 13 14 14 14 14 15 15 15 14 14 14 13 12 13 12 11 12 12 11 11 11 11 11 11 10 8 8 8 9
5 6 6 7 8 9 9 9 9 9 10 10 11 11 13 13 13 13 13 13 13 13 13 13 12 11 10 10 10 10 9 10 10 9 9 9 10 10 9 7 6 6 7 7
5 6 6 7 8 9 9 9 9 9 9 10 11 12 12 12 11 12 12 11 11 11 11 10 9 8 8 8 8 8 8 8 7 7 7 7 8 7 6 6 6 6 7 7
6 6 6 7 8 8 9 9 9 9 9 9 10 10 11 11 11 11 11 10 10 9 8 8 7 6 6 7 7 6 6 5 6 5 6 6 6 6 5 5 6 6 6 6
5 5 6 6 7 7 8 8 8 8 8 8 9 9 9 9 10 9 9 8 8 7 6 5 5 4 5 6 6 5 5 5 4 4 5 5 6 7 7 6 6 6 6 6
4 4 5 5 6 7 7 6 6 6 7 8 8 8 8 9 9 8 6 6 5 4 4 4 4 4 5 6 6 5 5 4 3 4 5 6 6 7 7 7 7 7 7 7
4 4 4 4 5 5 5 5 6 6 6 7 7 7 7 8 7 6 5 4 3 3 3 3 3 4 5 5 4 4 3 3 3 4 5 5 6 7 8 8 9 9 8 8
Wind_Direction
201 202 207 211 211 215 219 222 227 234 240 245 250 254 260 263 266 268 268 271 273 277 276 274 272 271 270 269 270 268 268 267 268 269 268 271 274 274 274 274 275 276 275 277
200 204 207 211 213 215 217 220 228 235 241 245 251 256 262 264 265 265 267 269 271 274 277 278 275 273 272 273 272 272 270 270 271 268 268 272 276 276 275 275 275 276 277 277
202 206 208 207 209 213 217 221 229 237 244 249 255 260 261 264 265 264 267 269 271 277 280 277 272 270 270 271 274 273 272 270 273 272 272 273 275 275 274 275 276 278 279 278
200 201 204 207 212 215 219 225 231 238 243 250 254 255 264 265 269 267 267 269 273 277 280 278 273 271 271 273 277 276 275 277 278 278 278 279 279 278 276 276 276 278 279 278
203 202 204 209 214 215 220 223 228 235 240 247 254 250 258 266 268 269 269 274 277 276 276 275 271 273 275 279 282 281 280 281 280 280 280 280 280 281 279 278 277 278 278 278
205 206 209 212 216 218 222 225 231 240 246 250 253 253 257 263 265 270 276 279 276 277 278 276 277 281 284 286 287 286 285 283 281 280 281 282 282 283 281 278 278 278 279 279
205 209 212 214 217 222 223 226 238 244 248 252 256 256 256 258 264 271 276 278 279 281 280 281 283 287 290 289 289 287 285 285 283 283 283 283 283 282 281 280 279 278 278 279
209 214 217 217 218 223 226 229 232 240 247 253 260 261 259 263 267 271 276 279 283 286 286 287 288 290 290 288 289 290 287 286 285 285 285 286 284 281 280 280 280 279 280 281
214 221 222 221 221 225 231 232 234 242 247 251 259 264 266 266 270 272 275 279 283 287 288 288 288 290 291 289 290 290 289 289 288 287 286 285 284 283 281 281 281 281 282 282
217 223 226 227 229 232 232 236 240 243 251 256 264 266 268 271 272 273 276 281 284 287 289 290 291 291 293 292 290 289 290 290 289 289 287 285 285 284 283 282 282 282 282 282
221 226 229 232 234 237 239 241 244 246 245 253 264 267 267 271 273 275 277 281 283 288 290 293 295 295 295 294 292 290 291 290 290 291 291 289 288 287 286 286 286 285 284 283
222 225 231 235 237 239 243 246 248 251 255 253 260 267 267 269 272 274 276 280 285 288 291 294 295 296 296 296 295 292 293 293 293 294 294 294 292 293 293 292 291 290 289 288
221 226 232 238 242 242 243 247 249 251 258 262 265 269 272 271 271 274 278 281 286 289 291 293 294 296 296 297 296 295 296 295 294 294 294 296 296 295 294 295 295 294 292 290
223 225 225 232 239 246 248 250 251 251 257 266 268 271 275 274 274 278 281 284 287 290 290 291 294 296 298 297 298 296 296 296 295 295 296 296 296 295 296 298 298 297 294 293
222 225 226 229 238 243 245 246 248 249 256 265 270 273 277 276 279 283 286 287 288 291 291 293 294 295 296 297 297 295 297 297 297 297 298 298 298 298 300 300 300 300 298 297
224 230 232 236 239 240 242 242 244 254 259 265 269 273 278 279 281 284 287 290 290 291 292 293 294 295 295 296 298 297 297 297 296 296 298 300 302 302 302 301 302 305 306 304
225 230 234 236 237 242 248 245 249 256 260 267 271 276 279 285 288 287 290 293 293 293 295 295 295 295 296 295 296 298 296 296 296 297 301 305 305 306 305 304 306 308 310 307
223 225 229 235 238 248 253 254 261 265 267 271 276 280 284 288 290 290 292 294 294 295 297 296 295 296 297 297 297 299 297 296 298 300 302 304 307 307 305 304 307 308 308 309
221 230 237 243 250 258 260 263 270 273 274 277 282 287 290 290 291 292 295 298 298 297 298 299 296 297 297 297 299 300 297 298 302 301 305 307 312 313 311 310 310 311 314 317
221 234 244 249 254 263 266 272 277 279 278 282 285 291 295 295 295 295 297 299 300 302 302 302 300 300 301 300 301 302 301 301 300 301 304 307 313 319 321 320 321 321 323 325
234 244 250 257 261 265 270 274 278 280 287 288 289 294 299 298 298 299 299 299 301 304 308 307 303 301 303 304 304 304 305 308 309 311 317 317 319 322 325 328 332 334 335 336
244 257 261 265 269 271 276 279 284 289 290 289 291 298 305 303 300 302 303 304 304 306 310 313 311 310 311 313 311 313 311 318 325 329 330 331 333 333 338 348 352 353 351 348
252 263 267 265 268 277 279 282 287 292 294 294 296 304 310 309 307 307 307 306 306 309 310 313 322 328 331 328 324 325 322 325 335 344 349 349 355 2 6 7 10 12 15 20
262 269 272 272 276 279 281 283 287 294 299 302 303 307 313 316 315 313 313 313 313 310 314 322 331 337 347 354 357 0 356 354 355 6 13 15 18 22 27 28 27 28 36 43
270 278 281 281 287 285 280 282 290 301 307 310 314 318 323 325 325 324 325 327 329 333 343 349 346 347 353 360 7 16 26 33 36 37 32 33 37 43 43 42 44 49 54 58
271 279 281 287 292 287 284 288 299 311 316 322 325 326 329 335 338 338 342 345 352 8 14 10 8 5 6 9 18 23 34 59 63 45 44 52 57 54 52 49 52 58 64 68
Height
5831 5836 5838 5841 5844 5848 5850 5852 5854 5856 5857 5859 5860 5861 5862 5862 5862 5862 5862 5862 5861 5860 5859 5858 5858 5857 5857 5856 5856 5855 5854 5854 5853 5852 5852 5852 5851 5850 5850 5849 5848 5848 5847 5846
5831 5834 5837 5839 5842 5845 5848 5850 5852 5853 5855 5857 5857 5858 5858 5858 5858 5858 5858 5858 5857 5856 5855 5854 5853 5853 5853 5852 5851 5851 5849 5849 5848 5848 5847 5847 5846 5845 5844 5843 5842 5842 5841 5840
5830 5833 5835 5838 5841 5843 5846 5848 5850 5851 5852 5853 5855 5855 5855 5855 5855 5855 5854 5854 5853 5853 5851 5850 5849 5848 5848 5848 5847 5846 5845 5845 5844 5843 5842 5842 5841 5840 5839 5837 5836 5835 5834 5833
5827 5830 5833 5836 5839 5841 5844 5845 5847 5848 5850 5851 5853 5854 5853 5852 5852 5851 5851 5851 5850 5849 5848 5846 5846 5845 5845 5844 5843 5842 5841 5840 5840 5838 5837 5836 5835 5833 5832 5831 5829 5828 5827 5826
5826 5829 5831 5834 5837 5839 5841 5843 5844 5846 5848 5849 5850 5851 5851 5849 5849 5848 5848 5847 5847 5846 5845 5843 5843 5842 5841 5840 5839 5838 5837 5836 5834 5833 5831 5830 5829 5827 5825 5824 5822 5821 5820 5819
5824 5827 5829 5832 5834 5836 5838 5841 5842 5844 5846 5847 5847 5848 5849 5847 5846 5846 5845 5844 5843 5842 5841 5840 5839 5838 5837 5835 5834 5833 5832 5830 5829 5827 5826 5824 5822 5820 5818 5817 5815 5814 5813 5811
5822 5825 5827 5829 5832 5834 5836 5839 5842 5843 5844 5845 5844 5844 5845 5843 5843 5842 5841 5840 5839 5838 5837 5836 5835 5834 5832 5831 5829 5828 5826 5824 5822 5821 5819 5817 5815 5813 5811 5810 5808 5807 5806 5804
5821 5824 5825 5827 5830 5832 5834 5837 5841 5842 5843 5842 5840 5840 5841 5839 5839 5838 5838 5836 5835 5834 5833 5832 5831 5829 5827 5826 5824 5822 5820 5818 5816 5814 5811 5809 5808 5806 5805 5803 5801 5800 5798 5796
5819 5822 5823 5825 5827 5829 5831 5833 5835 5837 5837 5838 5837 5836 5836 5835 5834 5834 5833 5833 5832 5830 5829 5827 5826 5824 5822 5820 5818 5816 5814 5811 5809 5806 5804 5802 5800 5799 5797 5795 5793 5792 5790 5788
5816 5818 5820 5821 5823 5825 5827 5828 5830 5832 5833 5834 5834 5833 5832 5831 5830 5830 5829 5828 5827 5826 5824 5822 5821 5818 5816 5814 5812 5809 5807 5805 5802 5799 5797 5794 5793 5791 5789 5787 5785 5783 5782 5780
5813 5816 5817 5819 5820 5822 5823 5825 5826 5828 5829 5831 5831 5832 5827 5826 5826 5825 5825 5824 5823 5821 5819 5817 5815 5813 5810 5808 5805 5803 5800 5798 5795 5792 5789 5787 5785 5783 5781 5779 5777 5775 5773 5771
5810 5813 5814 5816 5817 5818 5819 5820 5821 5824 5824 5824 5826 5827 5822 5821 5821 5821 5820 5819 5818 5816 5814 5812 5810 5807 5805 5802 5799 5796 5794 5791 5788 5785 5783 5780 5778 5776 5774 5771 5769 5767 5765 5763
5808 5810 5812 5813 5815 5815 5815 5816 5817 5818 5819 5819 5821 5822 5817 5816 5816 5816 5815 5814 5812 5811 5809 5807 5804 5802 5799 5797 5794 5791 5788 5785 5782 5780 5777 5775 5772 5770 5767 5765 5763 5760 5758 5757
5806 5808 5810 5812 5812 5811 5812 5812 5813 5814 5815 5816 5815 5815 5813 5812 5811 5811 5810 5809 5807 5806 5804 5801 5799 5796 5794 5791 5789 5786 5783 5780 5777 5774 5772 5769 5767 5764 5762 5759 5757 5755 5753 5751
5804 5805 5806 5807 5808 5808 5809 5809 5810 5810 5811 5812 5811 5810 5809 5808 5807 5806 5805 5804 5802 5800 5798 5796 5793 5791 5788 5786 5783 5781 5778 5775 5772 5769 5767 5764 5761 5759 5757 5754 5752 5750 5748 5746
5802 5803 5804 5805 5805 5805 5806 5806 5807 5807 5808 5808 5807 5806 5805 5804 5803 5802 5801 5799 5797 5795 5793 5790 5788 5785 5783 5781 5778 5775 5773 5770 5767 5765 5762 5759 5757 5754 5752 5750 5748 5746 5744 5742
5801 5802 5802 5803 5804 5804 5804 5804 5804 5805 5804 5804 5804 5803 5801 5800 5798 5797 5796 5794 5792 5790 5787 5785 5782 5780 5777 5775 5773 5770 5767 5765 5763 5760 5758 5755 5753 5751 5749 5747 5745 5743 5741 5739
5799 5800 5800 5801 5802 5802 5804 5802 5802 5801 5801 5800 5799 5799 5797 5796 5794 5793 5791 5789 5786 5784 5782 5779 5777 5775 5772 5770 5768 5765 5763 5761 5759 5757 5754 5752 5750 5748 5746 5744 5742 5740 5739 5737
5797 5798 5798 5799 5799 5800 5800 5799 5799 5798 5798 5797 5796 5795 5793 5791 5790 5788 5786 5784 5781 5779 5777 5774 5772 5770 5768 5765 5763 5761 5759 5757 5756 5754 5752 5750 5748 5745 5743 5741 5740 5738 5736 5734
5796 5796 5797 5797 5797 5797 5798 5797 5796 5796 5794 5794 5792 5791 5789 5787 5786 5784 5781 5779 5777 5775 5773 5770 5768 5765 5763 5761 5759 5757 5756 5754 5752 5751 5749 5747 5745 5743 5742 5740 5738 5736 5735 5733
5794 5794 5794 5794 5794 5794 5794 5793 5793 5794 5793 5790 5788 5787 5785 5783 5782 5780 5777 5775 5773 5771 5769 5766 5764 5762 5760 5758 5756 5755 5753 5751 5750 5748 5747 5745 5744 5742 5740 5739 5737 5736 5734 5732
5792 5793 5792 5792 5792 5793 5791 5790 5790 5790 5787 5786 5785 5783 5781 5779 5777 5775 5773 5771 5769 5767 5765 5763 5761 5759 5758 5756 5754 5752 5751 5749 5748 5747 5746 5744 5743 5741 5740 5738 5737 5735 5733 5732
5790 5791 5790 5790 5791 5789 5788 5787 5787 5785 5784 5783 5782 5780 5778 5776 5774 5771 5769 5767 5766 5764 5762 5761 5759 5757 5756 5754 5752 5751 5750 5748 5747 5746 5745 5744 5743 5741 5740 5739 5737 5735 5734 5732
5788 5788 5787 5787 5786 5786 5785 5784 5784 5783 5782 5780 5779 5777 5775 5773 5771 5768 5766 5765 5763 5761 5760 5759 5758 5757 5755 5753 5752 5750 5749 5748 5747 5746 5745 5744 5743 5742 5740 5739 5737 5736 5734 5733
5786 5786 5785 5785 5784 5783 5782 5782 5781 5780 5779 5778 5776 5774 5772 5770 5768 5766 5764 5762 5761 5760 5759 5758 5757 5756 5755 5754 5752 5751 5750 5749 5748 5747 5746 5745 5744 5743 5742 5740 5738 5737 5736 5735
5784 5784 5784 5783 5782 5781 5781 5779 5779 5778 5777 5775 5774 5772 5770 5768 5766 5764 5763 5761 5760 5759 5758 5758 5757 5756 5755 5753 5752 5751 5750 5749 5748 5748 5747 5746 5745 5744 5743 5742 5740 5739 5738 5737